Weather History for Kokomo, IN

Change the Weather History Date:

Saturday, November 10, 2012

  Actual Average (KGUS) Record (KGUS)
Temperature  
Mean Temperature 56 °F -  
Max Temperature 69 °F 48 °F 71 °F (1999)
Min Temperature 44 °F 33 °F 23 °F (1996)
Degree Days  
Heating Degree Days 8    
Growing Degree Days 6 (Base 50)    
Moisture  
Dew Point 44 °F    
Average Humidity 65    
Maximum Humidity 81    
Minimum Humidity 49    
Precipitation  
Precipitation 0.00 in - - ()
Sea Level Pressure  
Sea Level Pressure 30.06 in    
Wind  
Wind Speed 11 mph (South)    
Max Wind Speed 21 mph    
Max Gust Speed 29 mph    
Visibility 10 miles    
Events      
Averages and records for this station are not official NWS values.
T = Trace of Precipitation, MM = Missing Value Source: NWS Daily Summary

Daily Weather History Graph

Daily Weather History Graph

Search for Another Location

Airport:

Trip Planner

Search our weather history database for the weather conditions in past years. The results will help you decide how hot, cold, wet, or windy it might be!

Date:

Astronomy

Nov. 10, 2012 Rise Set
Actual Time 6:25 AM CST 4:30 PM CST
Civil Twilight 5:56 AM CST 4:59 PM CST
Nautical Twilight 5:23 AM CST 5:32 PM CST
Astronomical Twilight 4:51 AM CST 6:04 PM CST
Moon 2:28 AM CST (11/10) 2:17 PM CST (11/10)
Length of Visible Light 11h 03m
Length of Day
10h 05m
Waning Crescent, 14% of the Moon is Illuminated
Nov 10
Waning Crescent
Nov 13
New
Nov 20
First Quarter
Nov 28
Full
Dec 6
Last Quarter

Hourly Weather History & Observations

Time (CST) Temp. Windchill Dew Point Humidity Pressure Visibility Wind Dir Wind Speed Gust Speed Precip Events Conditions
12:15 AM 48.2 °F - 39.2 °F 71% 30.06 in 10.0 mi SSE 8.1 mph - N/A   Clear
12:35 AM 48.2 °F - 39.2 °F 71% 30.06 in 10.0 mi SSE 6.9 mph - N/A   Clear
12:55 AM 48.2 °F - 39.2 °F 71% 30.07 in 10.0 mi SSE 8.1 mph - N/A   Clear
1:15 AM 46.4 °F 41.5 °F 39.2 °F 76% 30.07 in 10.0 mi South 10.4 mph - N/A   Clear
1:35 AM 48.2 °F - 39.2 °F 71% 30.07 in 10.0 mi South 10.4 mph - N/A   Clear
1:55 AM 48.2 °F - 39.2 °F 71% 30.08 in 10.0 mi South 9.2 mph - N/A   Clear
2:15 AM 46.4 °F 41.9 °F 39.2 °F 76% 30.08 in 10.0 mi South 9.2 mph - N/A   Clear
2:35 AM 46.4 °F 42.4 °F 39.2 °F 76% 30.08 in 10.0 mi South 8.1 mph - N/A   Clear
2:55 AM 46.4 °F 42.4 °F 39.2 °F 76% 30.08 in 10.0 mi South 8.1 mph - N/A   Clear
3:15 AM 46.4 °F 42.4 °F 39.2 °F 76% 30.08 in 10.0 mi South 8.1 mph - N/A   Clear
3:35 AM 46.4 °F 42.4 °F 39.2 °F 76% 30.08 in 10.0 mi South 8.1 mph - N/A   Clear
3:55 AM 46.4 °F 42.4 °F 39.2 °F 76% 30.08 in 10.0 mi South 8.1 mph - N/A   Clear
4:15 AM 46.4 °F 42.4 °F 39.2 °F 76% 30.08 in 10.0 mi South 8.1 mph - N/A   Clear
4:35 AM 46.4 °F 42.9 °F 39.2 °F 76% 30.08 in 10.0 mi South 6.9 mph - N/A   Clear
4:55 AM 44.6 °F 40.2 °F 39.2 °F 81% 30.08 in 10.0 mi South 8.1 mph - N/A   Clear
5:15 AM 46.4 °F 42.4 °F 39.2 °F 76% 30.09 in 10.0 mi South 8.1 mph - N/A   Clear
5:35 AM 46.4 °F 42.4 °F 39.2 °F 76% 30.09 in 10.0 mi South 8.1 mph - N/A   Mostly Cloudy
6:15 AM 48.2 °F - 41.0 °F 76% 30.09 in 10.0 mi South 9.2 mph - N/A   Overcast
6:35 AM 48.2 °F - 41.0 °F 76% 30.09 in 10.0 mi South 8.1 mph - N/A   Overcast
6:55 AM 48.2 °F - 39.2 °F 71% 30.10 in 10.0 mi South 9.2 mph - N/A   Overcast
7:15 AM 50.0 °F - 41.0 °F 71% 30.11 in 10.0 mi South 8.1 mph - N/A   Overcast
7:35 AM 50.0 °F - 41.0 °F 71% 30.10 in 10.0 mi South 9.2 mph - N/A   Overcast
7:55 AM 51.8 °F - 42.8 °F 71% 30.10 in 10.0 mi South 9.2 mph - N/A   Mostly Cloudy
8:15 AM 51.8 °F - 42.8 °F 71% 30.10 in 10.0 mi South 10.4 mph - N/A   Mostly Cloudy
8:35 AM 51.8 °F - 42.8 °F 71% 30.09 in 10.0 mi South 11.5 mph - N/A   Mostly Cloudy
8:55 AM 55.4 °F - 44.6 °F 67% 30.09 in 10.0 mi South 13.8 mph - N/A   Scattered Clouds
9:15 AM 57.2 °F - 44.6 °F 63% 30.09 in 10.0 mi SSW 18.4 mph - N/A   Partly Cloudy
9:35 AM 57.2 °F - 44.6 °F 63% 30.09 in 10.0 mi SSW 16.1 mph - N/A   Mostly Cloudy
9:55 AM 59.0 °F - 44.6 °F 59% 30.09 in 10.0 mi SSW 16.1 mph - N/A   Overcast
10:15 AM 60.8 °F - 46.4 °F 59% 30.08 in 10.0 mi SSW 16.1 mph - N/A   Overcast
10:35 AM 62.6 °F - 46.4 °F 55% 30.08 in 10.0 mi SSW 18.4 mph 23.0 mph N/A   Mostly Cloudy
10:55 AM 62.6 °F - 48.2 °F 59% 30.06 in 10.0 mi South 15.0 mph - N/A   Overcast
11:15 AM 64.4 °F - 48.2 °F 56% 30.06 in 10.0 mi SW 17.3 mph 28.8 mph N/A   Overcast
11:35 AM 66.2 °F - 50.0 °F 56% 30.04 in 10.0 mi SSW 18.4 mph 26.5 mph N/A   Overcast
11:55 AM 66.2 °F - 50.0 °F 56% 30.04 in 10.0 mi SSW 15.0 mph 24.2 mph N/A   Scattered Clouds
12:15 PM 68.0 °F - 50.0 °F 52% 30.03 in 10.0 mi SSW 18.4 mph 24.2 mph N/A   Clear
12:35 PM 69.8 °F - 51.8 °F 53% 30.03 in 10.0 mi SW 18.4 mph 21.9 mph N/A   Clear
12:55 PM 69.8 °F - 51.8 °F 53% 30.02 in 10.0 mi South 17.3 mph 23.0 mph N/A   Clear
1:15 PM 69.8 °F - 51.8 °F 53% 30.02 in 10.0 mi South 18.4 mph 25.3 mph N/A   Clear
1:35 PM - - - N/A% 30.01 in 10.0 mi SSW 15.0 mph 23.0 mph N/A   Clear
1:55 PM - - - N/A% 30.01 in 10.0 mi South 20.7 mph - N/A   Clear
2:15 PM - - - N/A% 30.01 in 10.0 mi South 19.6 mph 25.3 mph N/A   Clear
2:35 PM - - - N/A% 30.01 in 10.0 mi SSW 16.1 mph 21.9 mph N/A   Clear
2:55 PM - - - N/A% 30.02 in 10.0 mi SSW 13.8 mph - N/A   Clear
3:15 PM - - - N/A% 30.02 in 10.0 mi SSW 12.7 mph 21.9 mph N/A   Clear
3:35 PM - - - N/A% 30.02 in 10.0 mi South 11.5 mph - N/A   Clear
3:55 PM 66.2 °F - 48.2 °F 52% 30.02 in 10.0 mi South 9.2 mph - N/A   Clear
4:15 PM 64.4 °F - 46.4 °F 52% 30.03 in 10.0 mi South 9.2 mph - N/A   Clear
4:35 PM 64.4 °F - 46.4 °F 52% 30.03 in 10.0 mi South 12.7 mph - N/A   Clear
4:55 PM 64.4 °F - 44.6 °F 49% 30.03 in 10.0 mi South 9.2 mph - N/A   Clear
5:15 PM 62.6 °F - 44.6 °F 52% 30.04 in 10.0 mi SSW 9.2 mph - N/A   Clear
5:35 PM 60.8 °F - 44.6 °F 55% 30.05 in 10.0 mi South 9.2 mph - N/A   Partly Cloudy
5:55 PM 59.0 °F - 44.6 °F 59% 30.05 in 10.0 mi South 10.4 mph - N/A   Partly Cloudy
6:15 PM 57.2 °F - 46.4 °F 67% 30.06 in 10.0 mi South 10.4 mph - N/A   Clear
6:35 PM 57.2 °F - 44.6 °F 63% 30.06 in 10.0 mi South 10.4 mph - N/A   Clear
6:55 PM 59.0 °F - 44.6 °F 59% 30.06 in 10.0 mi South 11.5 mph - N/A   Clear
7:15 PM 59.0 °F - 44.6 °F 59% 30.05 in 10.0 mi South 10.4 mph - N/A   Clear
7:35 PM 57.2 °F - 44.6 °F 63% 30.06 in 10.0 mi South 11.5 mph - N/A   Clear
7:55 PM 57.2 °F - 44.6 °F 63% 30.06 in 10.0 mi South 11.5 mph - N/A   Clear
8:15 PM 57.2 °F - 44.6 °F 63% 30.06 in 10.0 mi South 10.4 mph - N/A   Clear
8:35 PM 57.2 °F - 44.6 °F 63% 30.06 in 10.0 mi South 11.5 mph - N/A   Clear
8:55 PM 57.2 °F - 46.4 °F 67% 30.06 in 10.0 mi South 13.8 mph - N/A   Clear
9:35 PM 57.2 °F - 46.4 °F 67% 30.06 in 10.0 mi South 13.8 mph - N/A   Clear
9:55 PM 57.2 °F - 46.4 °F 67% 30.06 in 10.0 mi South 13.8 mph 19.6 mph N/A   Clear
10:15 PM 57.2 °F - 46.4 °F 67% 30.06 in 10.0 mi South 15.0 mph 20.7 mph N/A   Clear
10:35 PM 57.2 °F - 46.4 °F 67% 30.06 in 10.0 mi South 13.8 mph - N/A   Clear
10:55 PM 57.2 °F - 44.6 °F 63% 30.05 in 10.0 mi South 12.7 mph - N/A   Clear
11:15 PM 57.2 °F - 44.6 °F 63% 30.05 in 10.0 mi South 16.1 mph 20.7 mph N/A   Clear
11:35 PM 57.2 °F - 44.6 °F 63% 30.05 in 10.0 mi South 15.0 mph - N/A   Clear
11:55 PM 57.2 °F - 44.6 °F 63% 30.06 in 10.0 mi South 16.1 mph - N/A   Clear